Regional Weather Roundup
Issued by NWS Huntsville, AL

Home | Current Version | Previous Version | Text Only | Print | Product List | Glossary On
Versions: 1 2 3 4 5 6 7 8 9 10 11 12 13 14 15 16 17 18 19 20 21 22 23 24 25 26 27 28 29 30 31 32 33 34 35 36 37 38 39 40 41 42 43 44 45 46 47 48 49 50
000
ASUS44 KHUN 310010
RWRHUN

WEATHER ROUNDUP FOR THE TENNESSEE VALLEY
NATIONAL WEATHER SERVICE HUNTSVILLE AL
700 PM CDT THU MAR 30 2017

ALZ001>004-310100-
NORTHWEST ALABAMA

CITY           SKY/WX    TMP DP  RH WIND       PRES   REMARKS
COURTLAND HCN    N/A     66 N/A N/A SW18        N/A
RUSSELLVILLE     N/A     72 N/A N/A MISG        N/A
SHOALS AIRPORT MOCLDY    73  53  49 SW12      29.68S
6HR MIN TEMP:  73; 6HR MAX TEMP:  78;

SHOALS TVA RES   N/A     72 N/A N/A MISG        N/A
$$

ALZ005>007-016-310100-
NORTH CENTRAL ALABAMA

CITY           SKY/WX    TMP DP  RH WIND       PRES   REMARKS
CULLMAN AG STN   N/A     64 N/A N/A S6          N/A
DECATUR AP     CLOUDY    68  51  54 S16G24    29.70R
6HR MIN TEMP:  68; 6HR MAX TEMP:  75; 6HR PCP: TRACE;

HUNTSVILLE AP  CLOUDY    70  52  52 S17       29.69R
6HR MIN TEMP:  70; 6HR MAX TEMP:  77;

MERIDIANVILLE  CLOUDY    72  46  40 S22G33    29.68R
REDSTONE ARSN  CLOUDY    69  52  54 SW15G26   29.69R
VINEMONT AP    FAIR      65  55  69 S13       29.76R
$$

ALZ008>010-310100-
NORTHEAST ALABAMA

CITY           SKY/WX    TMP DP  RH WIND       PRES   REMARKS
ALBERTVILLE    CLOUDY    66  57  72 S12G17    29.74R
FORT PAYNE     LGT RAIN  70  50  49 SW9G23    29.70F
SCOTTSBORO AP  MOCLDY    73  54  49 SW16G30   29.70R
SCOTTSBORO HCN   N/A     73 N/A N/A MISG        N/A
VALLEY HEAD      N/A     72 N/A N/A MISG        N/A
$$

TNZ076-096-097-310100-
SOUTHEASTERN MIDDLE TENNESSEE

CITY           SKY/WX    TMP DP  RH WIND       PRES   REMARKS
TULLAHOMA      PTCLDY    72  55  56 SW9       29.67S
WINCHESTER     CLEAR     73  55  53 S14G26    29.66R
$$

...SURROUNDING SITES...

CITY           SKY/WX    TMP DP  RH WIND       PRES   REMARKS
ATLANTA        CLOUDY    77  51  40 S6        29.80S
ANNISTON       LGT RAIN  62  60  93 S5        29.82R
BIRMINGHAM     CLOUDY    66  55  67 S9G24     29.76R
CHATTANOOGA    CLOUDY    76  54  46 S16G28    29.71F THUNDER
CORINTH        CLOUDY    72  52  49 S9        29.63S
DALTON         CLOUDY    73  54  49 S9        29.74F
GADSDEN        NOT AVBL
GOLDEN TRNGL   PTCLDY    72  50  46 S12G18    29.66S
HALEYVILLE     LGT RAIN  66  60  81 S10       29.72R
JACKSON TN     TSTM      66  62  87 W9        29.61R
MEMPHIS        PTCLDY    64  45  49 W17G25    29.67R
NASHVILLE      LGT RAIN  70  58  65 S16G25    29.63S
OXFORD MS      FAIR      63  59  88 S8        29.68S
ROME           TSTM      74  57  55 SW20G36   29.77R
SAVANNAH       MOCLDY    72  54  53 S14G22    29.63R
TUPELO         CLOUDY    71  50  47 S13       29.66R
TUSCALOOSA     CLOUDY    68  58  70 S9        29.73S
$$

...GULF COAST WEATHER...

CITY           SKY/WX    TMP DP  RH WIND       PRES   REMARKS
GULFPORT       MOCLDY    69  63  81 S7        29.74R
PASCAGOULA     CLOUDY    65  60  84 E3        29.75R
MOBILE         MOCLDY    65  60  84 E7        29.74F
GULF SHORES    DRIZZLE   63  63  99 S7        29.76F
PENSACOLA      LGT RAIN  65  62  90 E12       29.77F
DESTIN         RAIN      68  68 100 S9        29.84R FOG
PANAMA CITY    LGT RAIN  72  68  88 SE15      29.85R
APPALACHICOLA  CLOUDY    73  70  90 S13       29.85F
$$




USA.gov is the U.S. government's official web portal to all federal, state and local government web resources and services.